Orbital Elements at Epoch 2459200.5 (2020-Dec-17.0) TDB
Reference: JPL 30 (heliocentric ecliptic J2000)
Element | Value | Uncertainty (1-sigma) | Units |
e | .2219514612017198 | 3.237e-08 | |
a | 2.343625955278203 | 9.2041e-09 | au |
q | 1.82345474999393 | 7.5196e-08 | au |
i | 10.08181191190997 | 3.3048e-06 | deg |
node | 237.2149103084943 | 2.2595e-05 | deg |
peri | 40.01972729004156 | 2.4893e-05 | deg |
M | 55.33134580329495 | 8.465e-06 | deg |
tp | 2458999.081383634180 (2020-May-29.58138363) | 3.1161e-05 | TDB |
period | 1310.481443004724 3.59 | 7.7199e-06 2.114e-08 | d yr |
n | .2747082012657711 | 1.6183e-09 | deg/d |
Q | 2.863797160562477 | 1.1247e-08 | au |
|
| | Orbit Determination Parameters
Additional Information
|